Aviation Digital Data Service (ADDS)

Output produced by METARs form (0537 UTC 21 January 2019)
found at http://www.aviationweather.gov/metar/data/
 
METAR text: OIAW 210530Z 26002KT 7000 NSC 08/05 Q1023
Conditions at: OIAW (AHWAZ , IR) observed 0530 UTC 21 January 2019
Temperature: 8.0°C (46°F)
Dewpoint: 5.0°C (41°F) [RH = 81%]
Pressure (altimeter): 30.21 inches Hg (1023.0 mb)
Winds: from the W (260 degrees) at 2 MPH (2 knots; 1.0 m/s)
Visibility: 4 miles ( 7 km)
Ceiling: at least 12,000 feet AGL
Clouds: sky clear below 12,000 feet AGL
Weather: no significant weather observed at this time

METAR text: OIAW 210525Z 26002KT 7000 NSC 08/05 Q1023
Conditions at: OIAW (AHWAZ , IR) observed 0525 UTC 21 January 2019
Temperature: 8.0°C (46°F)
Dewpoint: 5.0°C (41°F) [RH = 81%]
Pressure (altimeter): 30.21 inches Hg (1023.0 mb)
Winds: from the W (260 degrees) at 2 MPH (2 knots; 1.0 m/s)
Visibility: 4 miles ( 7 km)
Ceiling: at least 12,000 feet AGL
Clouds: sky clear below 12,000 feet AGL
Weather: no significant weather observed at this time

METAR text: OIAW 210500Z 24002KT 7000 NSC 07/04 Q1023
Conditions at: OIAW (AHWAZ , IR) observed 0500 UTC 21 January 2019
Temperature: 7.0°C (45°F)
Dewpoint: 4.0°C (39°F) [RH = 81%]
Pressure (altimeter): 30.21 inches Hg (1023.0 mb)
Winds: from the WSW (240 degrees) at 2 MPH (2 knots; 1.0 m/s)
Visibility: 4 miles ( 7 km)
Ceiling: at least 12,000 feet AGL
Clouds: sky clear below 12,000 feet AGL
Weather: no significant weather observed at this time

METAR text: OIAW 210452Z 24002KT 7000 NSC 07/04 Q1023
Conditions at: OIAW (AHWAZ , IR) observed 0452 UTC 21 January 2019
Temperature: 7.0°C (45°F)
Dewpoint: 4.0°C (39°F) [RH = 81%]
Pressure (altimeter): 30.21 inches Hg (1023.0 mb)
Winds: from the WSW (240 degrees) at 2 MPH (2 knots; 1.0 m/s)
Visibility: 4 miles ( 7 km)
Ceiling: at least 12,000 feet AGL
Clouds: sky clear below 12,000 feet AGL
Weather: no significant weather observed at this time

METAR text: OIAW 210430Z 29002KT 7000 NSC 06/04 Q1023
Conditions at: OIAW (AHWAZ , IR) observed 0430 UTC 21 January 2019
Temperature: 6.0°C (43°F)
Dewpoint: 4.0°C (39°F) [RH = 87%]
Pressure (altimeter): 30.21 inches Hg (1023.0 mb)
Winds: from the WNW (290 degrees) at 2 MPH (2 knots; 1.0 m/s)
Visibility: 4 miles ( 7 km)
Ceiling: at least 12,000 feet AGL
Clouds: sky clear below 12,000 feet AGL
Weather: no significant weather observed at this time

METAR text: OIAW 210426Z 29002KT 7000 NSC 06/04 Q1023
Conditions at: OIAW (AHWAZ , IR) observed 0426 UTC 21 January 2019
Temperature: 6.0°C (43°F)
Dewpoint: 4.0°C (39°F) [RH = 87%]
Pressure (altimeter): 30.21 inches Hg (1023.0 mb)
Winds: from the WNW (290 degrees) at 2 MPH (2 knots; 1.0 m/s)
Visibility: 4 miles ( 7 km)
Ceiling: at least 12,000 feet AGL
Clouds: sky clear below 12,000 feet AGL
Weather: no significant weather observed at this time

METAR text: OIAW 210400Z 31002KT 7000 NSC 06/04 Q1023
Conditions at: OIAW (AHWAZ , IR) observed 0400 UTC 21 January 2019
Temperature: 6.0°C (43°F)
Dewpoint: 4.0°C (39°F) [RH = 87%]
Pressure (altimeter): 30.21 inches Hg (1023.0 mb)
Winds: from the NW (310 degrees) at 2 MPH (2 knots; 1.0 m/s)
Visibility: 4 miles ( 7 km)
Ceiling: at least 12,000 feet AGL
Clouds: sky clear below 12,000 feet AGL
Weather: no significant weather observed at this time

METAR text: OIAW 210355Z 31002KT 7000 NSC 06/04 Q1023
Conditions at: OIAW (AHWAZ , IR) observed 0355 UTC 21 January 2019
Temperature: 6.0°C (43°F)
Dewpoint: 4.0°C (39°F) [RH = 87%]
Pressure (altimeter): 30.21 inches Hg (1023.0 mb)
Winds: from the NW (310 degrees) at 2 MPH (2 knots; 1.0 m/s)
Visibility: 4 miles ( 7 km)
Ceiling: at least 12,000 feet AGL
Clouds: sky clear below 12,000 feet AGL
Weather: no significant weather observed at this time

METAR text: OIAW 210330Z 36002KT 7000 NSC 06/04 Q1022
Conditions at: OIAW (AHWAZ , IR) observed 0330 UTC 21 January 2019
Temperature: 6.0°C (43°F)
Dewpoint: 4.0°C (39°F) [RH = 87%]
Pressure (altimeter): 30.18 inches Hg (1022.0 mb)
Winds: from the N (360 degrees) at 2 MPH (2 knots; 1.0 m/s)
Visibility: 4 miles ( 7 km)
Ceiling: at least 12,000 feet AGL
Clouds: sky clear below 12,000 feet AGL
Weather: no significant weather observed at this time

METAR text: OIAW 210325Z 36002KT 7000 NSC 06/04 Q1022
Conditions at: OIAW (AHWAZ , IR) observed 0325 UTC 21 January 2019
Temperature: 6.0°C (43°F)
Dewpoint: 4.0°C (39°F) [RH = 87%]
Pressure (altimeter): 30.18 inches Hg (1022.0 mb)
Winds: from the N (360 degrees) at 2 MPH (2 knots; 1.0 m/s)
Visibility: 4 miles ( 7 km)
Ceiling: at least 12,000 feet AGL
Clouds: sky clear below 12,000 feet AGL
Weather: no significant weather observed at this time

METAR text: OIAW 210300Z 35002KT 7000 NSC 06/04 Q1022
Conditions at: OIAW (AHWAZ , IR) observed 0300 UTC 21 January 2019
Temperature: 6.0°C (43°F)
Dewpoint: 4.0°C (39°F) [RH = 87%]
Pressure (altimeter): 30.18 inches Hg (1022.0 mb)
Winds: from the N (350 degrees) at 2 MPH (2 knots; 1.0 m/s)
Visibility: 4 miles ( 7 km)
Ceiling: at least 12,000 feet AGL
Clouds: sky clear below 12,000 feet AGL
Weather: no significant weather observed at this time

METAR text: OIAW 210253Z 35002KT 7000 NSC 06/04 Q1022
Conditions at: OIAW (AHWAZ , IR) observed 0253 UTC 21 January 2019
Temperature: 6.0°C (43°F)
Dewpoint: 4.0°C (39°F) [RH = 87%]
Pressure (altimeter): 30.18 inches Hg (1022.0 mb)
Winds: from the N (350 degrees) at 2 MPH (2 knots; 1.0 m/s)
Visibility: 4 miles ( 7 km)
Ceiling: at least 12,000 feet AGL
Clouds: sky clear below 12,000 feet AGL
Weather: no significant weather observed at this time

METAR text: OIAW 210200Z 32002KT 7000 NSC 06/04 Q1022
Conditions at: OIAW (AHWAZ , IR) observed 0200 UTC 21 January 2019
Temperature: 6.0°C (43°F)
Dewpoint: 4.0°C (39°F) [RH = 87%]
Pressure (altimeter): 30.18 inches Hg (1022.0 mb)
Winds: from the NW (320 degrees) at 2 MPH (2 knots; 1.0 m/s)
Visibility: 4 miles ( 7 km)
Ceiling: at least 12,000 feet AGL
Clouds: sky clear below 12,000 feet AGL
Weather: no significant weather observed at this time

METAR text: OIAW 210154Z 32002KT 7000 NSC 06/04 Q1022
Conditions at: OIAW (AHWAZ , IR) observed 0154 UTC 21 January 2019
Temperature: 6.0°C (43°F)
Dewpoint: 4.0°C (39°F) [RH = 87%]
Pressure (altimeter): 30.18 inches Hg (1022.0 mb)
Winds: from the NW (320 degrees) at 2 MPH (2 knots; 1.0 m/s)
Visibility: 4 miles ( 7 km)
Ceiling: at least 12,000 feet AGL
Clouds: sky clear below 12,000 feet AGL
Weather: no significant weather observed at this time

METAR text: OIAW 210100Z 28004KT 8000 NSC 07/04 Q1022
Conditions at: OIAW (AHWAZ , IR) observed 0100 UTC 21 January 2019
Temperature: 7.0°C (45°F)
Dewpoint: 4.0°C (39°F) [RH = 81%]
Pressure (altimeter): 30.18 inches Hg (1022.0 mb)
Winds: from the W (280 degrees) at 5 MPH (4 knots; 2.1 m/s)
Visibility: 5 miles ( 8 km)
Ceiling: at least 12,000 feet AGL
Clouds: sky clear below 12,000 feet AGL
Weather: no significant weather observed at this time

METAR text: OIAW 210050Z 28004KT 8000 NSC 07/04 Q1022
Conditions at: OIAW (AHWAZ , IR) observed 0050 UTC 21 January 2019
Temperature: 7.0°C (45°F)
Dewpoint: 4.0°C (39°F) [RH = 81%]
Pressure (altimeter): 30.18 inches Hg (1022.0 mb)
Winds: from the W (280 degrees) at 5 MPH (4 knots; 2.1 m/s)
Visibility: 5 miles ( 8 km)
Ceiling: at least 12,000 feet AGL
Clouds: sky clear below 12,000 feet AGL
Weather: no significant weather observed at this time

METAR text: OIAW 210000Z 28002KT CAVOK 06/04 Q1022
Conditions at: OIAW (AHWAZ , IR) observed 0000 UTC 21 January 2019
Temperature: 6.0°C (43°F)
Dewpoint: 4.0°C (39°F) [RH = 87%]
Pressure (altimeter): 30.18 inches Hg (1022.0 mb)
Winds: from the W (280 degrees) at 2 MPH (2 knots; 1.0 m/s)
Visibility: 6 or more miles (10+ km)
Ceiling: ceiling and visibility are OK
Clouds: unknown
Weather: no significant weather observed at this time

METAR text: OIAW 202350Z 28002KT CAVOK 06/04 Q1022
Conditions at: OIAW (AHWAZ , IR) observed 2350 UTC 20 January 2019
Temperature: 6.0°C (43°F)
Dewpoint: 4.0°C (39°F) [RH = 87%]
Pressure (altimeter): 30.18 inches Hg (1022.0 mb)
Winds: from the W (280 degrees) at 2 MPH (2 knots; 1.0 m/s)
Visibility: 6 or more miles (10+ km)
Ceiling: ceiling and visibility are OK
Clouds: unknown
Weather: no significant weather observed at this time

METAR text: OIAW 202300Z 29002KT CAVOK 07/04 Q1022
Conditions at: OIAW (AHWAZ , IR) observed 2300 UTC 20 January 2019
Temperature: 7.0°C (45°F)
Dewpoint: 4.0°C (39°F) [RH = 81%]
Pressure (altimeter): 30.18 inches Hg (1022.0 mb)
Winds: from the WNW (290 degrees) at 2 MPH (2 knots; 1.0 m/s)
Visibility: 6 or more miles (10+ km)
Ceiling: ceiling and visibility are OK
Clouds: unknown
Weather: no significant weather observed at this time

METAR text: OIAW 202250Z 29002KT CAVOK 07/04 Q1022
Conditions at: OIAW (AHWAZ , IR) observed 2250 UTC 20 January 2019
Temperature: 7.0°C (45°F)
Dewpoint: 4.0°C (39°F) [RH = 81%]
Pressure (altimeter): 30.18 inches Hg (1022.0 mb)
Winds: from the WNW (290 degrees) at 2 MPH (2 knots; 1.0 m/s)
Visibility: 6 or more miles (10+ km)
Ceiling: ceiling and visibility are OK
Clouds: unknown
Weather: no significant weather observed at this time

METAR text: OIAW 202200Z 30002KT CAVOK 08/04 Q1022
Conditions at: OIAW (AHWAZ , IR) observed 2200 UTC 20 January 2019
Temperature: 8.0°C (46°F)
Dewpoint: 4.0°C (39°F) [RH = 76%]
Pressure (altimeter): 30.18 inches Hg (1022.0 mb)
Winds: from the WNW (300 degrees) at 2 MPH (2 knots; 1.0 m/s)
Visibility: 6 or more miles (10+ km)
Ceiling: ceiling and visibility are OK
Clouds: unknown
Weather: no significant weather observed at this time

METAR text: OIAW 202153Z 30002KT CAVOK 08/04 Q1022
Conditions at: OIAW (AHWAZ , IR) observed 2153 UTC 20 January 2019
Temperature: 8.0°C (46°F)
Dewpoint: 4.0°C (39°F) [RH = 76%]
Pressure (altimeter): 30.18 inches Hg (1022.0 mb)
Winds: from the WNW (300 degrees) at 2 MPH (2 knots; 1.0 m/s)
Visibility: 6 or more miles (10+ km)
Ceiling: ceiling and visibility are OK
Clouds: unknown
Weather: no significant weather observed at this time

METAR text: OIAW 202100Z 31004KT CAVOK 09/04 Q1022
Conditions at: OIAW (AHWAZ , IR) observed 2100 UTC 20 January 2019
Temperature: 9.0°C (48°F)
Dewpoint: 4.0°C (39°F) [RH = 71%]
Pressure (altimeter): 30.18 inches Hg (1022.0 mb)
Winds: from the NW (310 degrees) at 5 MPH (4 knots; 2.1 m/s)
Visibility: 6 or more miles (10+ km)
Ceiling: ceiling and visibility are OK
Clouds: unknown
Weather: no significant weather observed at this time

METAR text: OIAW 202050Z 31004KT CAVOK 09/04 Q1022
Conditions at: OIAW (AHWAZ , IR) observed 2050 UTC 20 January 2019
Temperature: 9.0°C (48°F)
Dewpoint: 4.0°C (39°F) [RH = 71%]
Pressure (altimeter): 30.18 inches Hg (1022.0 mb)
Winds: from the NW (310 degrees) at 5 MPH (4 knots; 2.1 m/s)
Visibility: 6 or more miles (10+ km)
Ceiling: ceiling and visibility are OK
Clouds: unknown
Weather: no significant weather observed at this time

METAR text: OIAW 202030Z 31004KT CAVOK 09/04 Q1023
Conditions at: OIAW (AHWAZ , IR) observed 2030 UTC 20 January 2019
Temperature: 9.0°C (48°F)
Dewpoint: 4.0°C (39°F) [RH = 71%]
Pressure (altimeter): 30.21 inches Hg (1023.0 mb)
Winds: from the NW (310 degrees) at 5 MPH (4 knots; 2.1 m/s)
Visibility: 6 or more miles (10+ km)
Ceiling: ceiling and visibility are OK
Clouds: unknown
Weather: no significant weather observed at this time

METAR text: OIAW 202020Z 31004KT CAVOK 09/04 Q1023
Conditions at: OIAW (AHWAZ , IR) observed 2020 UTC 20 January 2019
Temperature: 9.0°C (48°F)
Dewpoint: 4.0°C (39°F) [RH = 71%]
Pressure (altimeter): 30.21 inches Hg (1023.0 mb)
Winds: from the NW (310 degrees) at 5 MPH (4 knots; 2.1 m/s)
Visibility: 6 or more miles (10+ km)
Ceiling: ceiling and visibility are OK
Clouds: unknown
Weather: no significant weather observed at this time

METAR text: OIAW 202000Z 31004KT CAVOK 09/04 Q1023
Conditions at: OIAW (AHWAZ , IR) observed 2000 UTC 20 January 2019
Temperature: 9.0°C (48°F)
Dewpoint: 4.0°C (39°F) [RH = 71%]
Pressure (altimeter): 30.21 inches Hg (1023.0 mb)
Winds: from the NW (310 degrees) at 5 MPH (4 knots; 2.1 m/s)
Visibility: 6 or more miles (10+ km)
Ceiling: ceiling and visibility are OK
Clouds: unknown
Weather: no significant weather observed at this time

METAR text: OIAW 201950Z 31004KT CAVOK 09/04 Q1023
Conditions at: OIAW (AHWAZ , IR) observed 1950 UTC 20 January 2019
Temperature: 9.0°C (48°F)
Dewpoint: 4.0°C (39°F) [RH = 71%]
Pressure (altimeter): 30.21 inches Hg (1023.0 mb)
Winds: from the NW (310 degrees) at 5 MPH (4 knots; 2.1 m/s)
Visibility: 6 or more miles (10+ km)
Ceiling: ceiling and visibility are OK
Clouds: unknown
Weather: no significant weather observed at this time

METAR text: OIAW 201930Z 31004KT CAVOK 09/04 Q1023
Conditions at: OIAW (AHWAZ , IR) observed 1930 UTC 20 January 2019
Temperature: 9.0°C (48°F)
Dewpoint: 4.0°C (39°F) [RH = 71%]
Pressure (altimeter): 30.21 inches Hg (1023.0 mb)
Winds: from the NW (310 degrees) at 5 MPH (4 knots; 2.1 m/s)
Visibility: 6 or more miles (10+ km)
Ceiling: ceiling and visibility are OK
Clouds: unknown
Weather: no significant weather observed at this time

METAR text: OIAW 201924Z 31004KT CAVOK 09/04 Q1023
Conditions at: OIAW (AHWAZ , IR) observed 1924 UTC 20 January 2019
Temperature: 9.0°C (48°F)
Dewpoint: 4.0°C (39°F) [RH = 71%]
Pressure (altimeter): 30.21 inches Hg (1023.0 mb)
Winds: from the NW (310 degrees) at 5 MPH (4 knots; 2.1 m/s)
Visibility: 6 or more miles (10+ km)
Ceiling: ceiling and visibility are OK
Clouds: unknown
Weather: no significant weather observed at this time

METAR text: OIAW 201900Z 30004KT CAVOK 10/04 Q1023
Conditions at: OIAW (AHWAZ , IR) observed 1900 UTC 20 January 2019
Temperature: 10.0°C (50°F)
Dewpoint: 4.0°C (39°F) [RH = 66%]
Pressure (altimeter): 30.21 inches Hg (1023.0 mb)
Winds: from the WNW (300 degrees) at 5 MPH (4 knots; 2.1 m/s)
Visibility: 6 or more miles (10+ km)
Ceiling: ceiling and visibility are OK
Clouds: unknown
Weather: no significant weather observed at this time

METAR text: OIAW 201850Z 30004KT CAVOK 10/04 Q1023
Conditions at: OIAW (AHWAZ , IR) observed 1850 UTC 20 January 2019
Temperature: 10.0°C (50°F)
Dewpoint: 4.0°C (39°F) [RH = 66%]
Pressure (altimeter): 30.21 inches Hg (1023.0 mb)
Winds: from the WNW (300 degrees) at 5 MPH (4 knots; 2.1 m/s)
Visibility: 6 or more miles (10+ km)
Ceiling: ceiling and visibility are OK
Clouds: unknown
Weather: no significant weather observed at this time

METAR text: OIAW 201830Z 30006KT CAVOK 10/04 Q1023
Conditions at: OIAW (AHWAZ , IR) observed 1830 UTC 20 January 2019
Temperature: 10.0°C (50°F)
Dewpoint: 4.0°C (39°F) [RH = 66%]
Pressure (altimeter): 30.21 inches Hg (1023.0 mb)
Winds: from the WNW (300 degrees) at 7 MPH (6 knots; 3.1 m/s)
Visibility: 6 or more miles (10+ km)
Ceiling: ceiling and visibility are OK
Clouds: unknown
Weather: no significant weather observed at this time

METAR text: OIAW 201823Z 30006KT CAVOK 10/04 Q1023
Conditions at: OIAW (AHWAZ , IR) observed 1823 UTC 20 January 2019
Temperature: 10.0°C (50°F)
Dewpoint: 4.0°C (39°F) [RH = 66%]
Pressure (altimeter): 30.21 inches Hg (1023.0 mb)
Winds: from the WNW (300 degrees) at 7 MPH (6 knots; 3.1 m/s)
Visibility: 6 or more miles (10+ km)
Ceiling: ceiling and visibility are OK
Clouds: unknown
Weather: no significant weather observed at this time

METAR text: OIAW 201800Z 31006KT CAVOK 10/05 Q1022
Conditions at: OIAW (AHWAZ , IR) observed 1800 UTC 20 January 2019
Temperature: 10.0°C (50°F)
Dewpoint: 5.0°C (41°F) [RH = 71%]
Pressure (altimeter): 30.18 inches Hg (1022.0 mb)
Winds: from the NW (310 degrees) at 7 MPH (6 knots; 3.1 m/s)
Visibility: 6 or more miles (10+ km)
Ceiling: ceiling and visibility are OK
Clouds: unknown
Weather: no significant weather observed at this time

METAR text: OIAW 201730Z 29006KT CAVOK 10/05 Q1022
Conditions at: OIAW (AHWAZ , IR) observed 1730 UTC 20 January 2019
Temperature: 10.0°C (50°F)
Dewpoint: 5.0°C (41°F) [RH = 71%]
Pressure (altimeter): 30.18 inches Hg (1022.0 mb)
Winds: from the WNW (290 degrees) at 7 MPH (6 knots; 3.1 m/s)
Visibility: 6 or more miles (10+ km)
Ceiling: ceiling and visibility are OK
Clouds: unknown
Weather: no significant weather observed at this time

METAR text: OIAW 201700Z 29006KT CAVOK 11/04 Q1022
Conditions at: OIAW (AHWAZ , IR) observed 1700 UTC 20 January 2019
Temperature: 11.0°C (52°F)
Dewpoint: 4.0°C (39°F) [RH = 62%]
Pressure (altimeter): 30.18 inches Hg (1022.0 mb)
Winds: from the WNW (290 degrees) at 7 MPH (6 knots; 3.1 m/s)
Visibility: 6 or more miles (10+ km)
Ceiling: ceiling and visibility are OK
Clouds: unknown
Weather: no significant weather observed at this time

METAR text: OIAW 201630Z 29006KT CAVOK 11/03 Q1022
Conditions at: OIAW (AHWAZ , IR) observed 1630 UTC 20 January 2019
Temperature: 11.0°C (52°F)
Dewpoint: 3.0°C (37°F) [RH = 58%]
Pressure (altimeter): 30.18 inches Hg (1022.0 mb)
Winds: from the WNW (290 degrees) at 7 MPH (6 knots; 3.1 m/s)
Visibility: 6 or more miles (10+ km)
Ceiling: ceiling and visibility are OK
Clouds: unknown
Weather: no significant weather observed at this time

METAR text: OIAW 201600Z 29006KT CAVOK 11/03 Q1022
Conditions at: OIAW (AHWAZ , IR) observed 1600 UTC 20 January 2019
Temperature: 11.0°C (52°F)
Dewpoint: 3.0°C (37°F) [RH = 58%]
Pressure (altimeter): 30.18 inches Hg (1022.0 mb)
Winds: from the WNW (290 degrees) at 7 MPH (6 knots; 3.1 m/s)
Visibility: 6 or more miles (10+ km)
Ceiling: ceiling and visibility are OK
Clouds: unknown
Weather: no significant weather observed at this time

METAR text: OIAW 201530Z 28006KT CAVOK 12/04 Q1022
Conditions at: OIAW (AHWAZ , IR) observed 1530 UTC 20 January 2019
Temperature: 12.0°C (54°F)
Dewpoint: 4.0°C (39°F) [RH = 58%]
Pressure (altimeter): 30.18 inches Hg (1022.0 mb)
Winds: from the W (280 degrees) at 7 MPH (6 knots; 3.1 m/s)
Visibility: 6 or more miles (10+ km)
Ceiling: ceiling and visibility are OK
Clouds: unknown
Weather: no significant weather observed at this time

METAR text: OIAW 201500Z 28006KT CAVOK 12/02 Q1021
Conditions at: OIAW (AHWAZ , IR) observed 1500 UTC 20 January 2019
Temperature: 12.0°C (54°F)
Dewpoint: 2.0°C (36°F) [RH = 50%]
Pressure (altimeter): 30.15 inches Hg (1021.0 mb)
Winds: from the W (280 degrees) at 7 MPH (6 knots; 3.1 m/s)
Visibility: 6 or more miles (10+ km)
Ceiling: ceiling and visibility are OK
Clouds: unknown
Weather: no significant weather observed at this time

METAR text: OIAW 201430Z 29006KT CAVOK 13/02 Q1021
Conditions at: OIAW (AHWAZ , IR) observed 1430 UTC 20 January 2019
Temperature: 13.0°C (55°F)
Dewpoint: 2.0°C (36°F) [RH = 47%]
Pressure (altimeter): 30.15 inches Hg (1021.0 mb)
Winds: from the WNW (290 degrees) at 7 MPH (6 knots; 3.1 m/s)
Visibility: 6 or more miles (10+ km)
Ceiling: ceiling and visibility are OK
Clouds: unknown
Weather: no significant weather observed at this time

METAR text: OIAW 201400Z 29006KT CAVOK 14/02 Q1021
Conditions at: OIAW (AHWAZ , IR) observed 1400 UTC 20 January 2019
Temperature: 14.0°C (57°F)
Dewpoint: 2.0°C (36°F) [RH = 44%]
Pressure (altimeter): 30.15 inches Hg (1021.0 mb)
Winds: from the WNW (290 degrees) at 7 MPH (6 knots; 3.1 m/s)
Visibility: 6 or more miles (10+ km)
Ceiling: ceiling and visibility are OK
Clouds: unknown
Weather: no significant weather observed at this time

METAR text: OIAW 201330Z 29006KT CAVOK 14/02 Q1021
Conditions at: OIAW (AHWAZ , IR) observed 1330 UTC 20 January 2019
Temperature: 14.0°C (57°F)
Dewpoint: 2.0°C (36°F) [RH = 44%]
Pressure (altimeter): 30.15 inches Hg (1021.0 mb)
Winds: from the WNW (290 degrees) at 7 MPH (6 knots; 3.1 m/s)
Visibility: 6 or more miles (10+ km)
Ceiling: ceiling and visibility are OK
Clouds: unknown
Weather: no significant weather observed at this time

METAR text: OIAW 201300Z 31006KT CAVOK 15/02 Q1021 NOSIG
Conditions at: OIAW (AHWAZ , IR) observed 1300 UTC 20 January 2019
Temperature: 15.0°C (59°F)
Dewpoint: 2.0°C (36°F) [RH = 41%]
Pressure (altimeter): 30.15 inches Hg (1021.0 mb)
Winds: from the NW (310 degrees) at 7 MPH (6 knots; 3.1 m/s)
Visibility: 6 or more miles (10+ km)
Ceiling: ceiling and visibility are OK
Clouds: unknown
Weather: no significant weather observed at this time

METAR text: OIAW 201230Z 31006KT CAVOK 15/02 Q1021
Conditions at: OIAW (AHWAZ , IR) observed 1230 UTC 20 January 2019
Temperature: 15.0°C (59°F)
Dewpoint: 2.0°C (36°F) [RH = 41%]
Pressure (altimeter): 30.15 inches Hg (1021.0 mb)
Winds: from the NW (310 degrees) at 7 MPH (6 knots; 3.1 m/s)
Visibility: 6 or more miles (10+ km)
Ceiling: ceiling and visibility are OK
Clouds: unknown
Weather: no significant weather observed at this time

METAR text: OIAW 201200Z 31008KT CAVOK 15/03 Q1021 NOSIG
Conditions at: OIAW (AHWAZ , IR) observed 1200 UTC 20 January 2019
Temperature: 15.0°C (59°F)
Dewpoint: 3.0°C (37°F) [RH = 44%]
Pressure (altimeter): 30.15 inches Hg (1021.0 mb)
Winds: from the NW (310 degrees) at 9 MPH (8 knots; 4.1 m/s)
Visibility: 6 or more miles (10+ km)
Ceiling: ceiling and visibility are OK
Clouds: unknown
Weather: no significant weather observed at this time

METAR text: OIAW 201130Z 29006KT CAVOK 15/03 Q1022
Conditions at: OIAW (AHWAZ , IR) observed 1130 UTC 20 January 2019
Temperature: 15.0°C (59°F)
Dewpoint: 3.0°C (37°F) [RH = 44%]
Pressure (altimeter): 30.18 inches Hg (1022.0 mb)
Winds: from the WNW (290 degrees) at 7 MPH (6 knots; 3.1 m/s)
Visibility: 6 or more miles (10+ km)
Ceiling: ceiling and visibility are OK
Clouds: unknown
Weather: no significant weather observed at this time

METAR text: OIAW 201120Z 29006KT CAVOK 15/03 Q1022
Conditions at: OIAW (AHWAZ , IR) observed 1120 UTC 20 January 2019
Temperature: 15.0°C (59°F)
Dewpoint: 3.0°C (37°F) [RH = 44%]
Pressure (altimeter): 30.18 inches Hg (1022.0 mb)
Winds: from the WNW (290 degrees) at 7 MPH (6 knots; 3.1 m/s)
Visibility: 6 or more miles (10+ km)
Ceiling: ceiling and visibility are OK
Clouds: unknown
Weather: no significant weather observed at this time

METAR text: OIAW 201100Z 29008KT CAVOK 15/02 Q1022 NOSIG
Conditions at: OIAW (AHWAZ , IR) observed 1100 UTC 20 January 2019
Temperature: 15.0°C (59°F)
Dewpoint: 2.0°C (36°F) [RH = 41%]
Pressure (altimeter): 30.18 inches Hg (1022.0 mb)
Winds: from the WNW (290 degrees) at 9 MPH (8 knots; 4.1 m/s)
Visibility: 6 or more miles (10+ km)
Ceiling: ceiling and visibility are OK
Clouds: unknown
Weather: no significant weather observed at this time

METAR text: OIAW 201051Z 29008KT CAVOK 15/02 Q1022 NOSIG
Conditions at: OIAW (AHWAZ , IR) observed 1051 UTC 20 January 2019
Temperature: 15.0°C (59°F)
Dewpoint: 2.0°C (36°F) [RH = 41%]
Pressure (altimeter): 30.18 inches Hg (1022.0 mb)
Winds: from the WNW (290 degrees) at 9 MPH (8 knots; 4.1 m/s)
Visibility: 6 or more miles (10+ km)
Ceiling: ceiling and visibility are OK
Clouds: unknown
Weather: no significant weather observed at this time

METAR text: OIAW 201030Z 28008KT CAVOK 15/04 Q1022
Conditions at: OIAW (AHWAZ , IR) observed 1030 UTC 20 January 2019
Temperature: 15.0°C (59°F)
Dewpoint: 4.0°C (39°F) [RH = 48%]
Pressure (altimeter): 30.18 inches Hg (1022.0 mb)
Winds: from the W (280 degrees) at 9 MPH (8 knots; 4.1 m/s)
Visibility: 6 or more miles (10+ km)
Ceiling: ceiling and visibility are OK
Clouds: unknown
Weather: no significant weather observed at this time

METAR text: OIAW 201021Z 28008KT CAVOK 15/04 Q1022
Conditions at: OIAW (AHWAZ , IR) observed 1021 UTC 20 January 2019
Temperature: 15.0°C (59°F)
Dewpoint: 4.0°C (39°F) [RH = 48%]
Pressure (altimeter): 30.18 inches Hg (1022.0 mb)
Winds: from the W (280 degrees) at 9 MPH (8 knots; 4.1 m/s)
Visibility: 6 or more miles (10+ km)
Ceiling: ceiling and visibility are OK
Clouds: unknown
Weather: no significant weather observed at this time

METAR text: OIAW 201000Z 29006KT CAVOK 14/04 Q1022 NOSIG
Conditions at: OIAW (AHWAZ , IR) observed 1000 UTC 20 January 2019
Temperature: 14.0°C (57°F)
Dewpoint: 4.0°C (39°F) [RH = 51%]
Pressure (altimeter): 30.18 inches Hg (1022.0 mb)
Winds: from the WNW (290 degrees) at 7 MPH (6 knots; 3.1 m/s)
Visibility: 6 or more miles (10+ km)
Ceiling: ceiling and visibility are OK
Clouds: unknown
Weather: no significant weather observed at this time

METAR text: OIAW 200950Z 29006KT CAVOK 14/04 Q1022 NOSIG
Conditions at: OIAW (AHWAZ , IR) observed 0950 UTC 20 January 2019
Temperature: 14.0°C (57°F)
Dewpoint: 4.0°C (39°F) [RH = 51%]
Pressure (altimeter): 30.18 inches Hg (1022.0 mb)
Winds: from the WNW (290 degrees) at 7 MPH (6 knots; 3.1 m/s)
Visibility: 6 or more miles (10+ km)
Ceiling: ceiling and visibility are OK
Clouds: unknown
Weather: no significant weather observed at this time

METAR text: OIAW 200930Z 31008KT CAVOK 14/04 Q1023
Conditions at: OIAW (AHWAZ , IR) observed 0930 UTC 20 January 2019
Temperature: 14.0°C (57°F)
Dewpoint: 4.0°C (39°F) [RH = 51%]
Pressure (altimeter): 30.21 inches Hg (1023.0 mb)
Winds: from the NW (310 degrees) at 9 MPH (8 knots; 4.1 m/s)
Visibility: 6 or more miles (10+ km)
Ceiling: ceiling and visibility are OK
Clouds: unknown
Weather: no significant weather observed at this time

METAR text: OIAW 200922Z 31008KT CAVOK 14/04 Q1023
Conditions at: OIAW (AHWAZ , IR) observed 0922 UTC 20 January 2019
Temperature: 14.0°C (57°F)
Dewpoint: 4.0°C (39°F) [RH = 51%]
Pressure (altimeter): 30.21 inches Hg (1023.0 mb)
Winds: from the NW (310 degrees) at 9 MPH (8 knots; 4.1 m/s)
Visibility: 6 or more miles (10+ km)
Ceiling: ceiling and visibility are OK
Clouds: unknown
Weather: no significant weather observed at this time

METAR text: OIAW 200900Z 31006KT CAVOK 13/05 Q1024 NOSIG
Conditions at: OIAW (AHWAZ , IR) observed 0900 UTC 20 January 2019
Temperature: 13.0°C (55°F)
Dewpoint: 5.0°C (41°F) [RH = 58%]
Pressure (altimeter): 30.24 inches Hg (1024.0 mb)
Winds: from the NW (310 degrees) at 7 MPH (6 knots; 3.1 m/s)
Visibility: 6 or more miles (10+ km)
Ceiling: ceiling and visibility are OK
Clouds: unknown
Weather: no significant weather observed at this time

METAR text: OIAW 200850Z 31006KT CAVOK 13/05 Q1024 NOSIG
Conditions at: OIAW (AHWAZ , IR) observed 0850 UTC 20 January 2019
Temperature: 13.0°C (55°F)
Dewpoint: 5.0°C (41°F) [RH = 58%]
Pressure (altimeter): 30.24 inches Hg (1024.0 mb)
Winds: from the NW (310 degrees) at 7 MPH (6 knots; 3.1 m/s)
Visibility: 6 or more miles (10+ km)
Ceiling: ceiling and visibility are OK
Clouds: unknown
Weather: no significant weather observed at this time

METAR text: OIAW 200830Z 30008KT 8000 NSC 13/04 Q1024
Conditions at: OIAW (AHWAZ , IR) observed 0830 UTC 20 January 2019
Temperature: 13.0°C (55°F)
Dewpoint: 4.0°C (39°F) [RH = 54%]
Pressure (altimeter): 30.24 inches Hg (1024.0 mb)
Winds: from the WNW (300 degrees) at 9 MPH (8 knots; 4.1 m/s)
Visibility: 5 miles ( 8 km)
Ceiling: at least 12,000 feet AGL
Clouds: sky clear below 12,000 feet AGL
Weather: no significant weather observed at this time

METAR text: OIAW 200825Z 30008KT 8000 NSC 13/04 Q1024
Conditions at: OIAW (AHWAZ , IR) observed 0825 UTC 20 January 2019
Temperature: 13.0°C (55°F)
Dewpoint: 4.0°C (39°F) [RH = 54%]
Pressure (altimeter): 30.24 inches Hg (1024.0 mb)
Winds: from the WNW (300 degrees) at 9 MPH (8 knots; 4.1 m/s)
Visibility: 5 miles ( 8 km)
Ceiling: at least 12,000 feet AGL
Clouds: sky clear below 12,000 feet AGL
Weather: no significant weather observed at this time

METAR text: OIAW 200800Z 30006KT 8000 NSC 13/04 Q1024 NOSIG
Conditions at: OIAW (AHWAZ , IR) observed 0800 UTC 20 January 2019
Temperature: 13.0°C (55°F)
Dewpoint: 4.0°C (39°F) [RH = 54%]
Pressure (altimeter): 30.24 inches Hg (1024.0 mb)
Winds: from the WNW (300 degrees) at 7 MPH (6 knots; 3.1 m/s)
Visibility: 5 miles ( 8 km)
Ceiling: at least 12,000 feet AGL
Clouds: sky clear below 12,000 feet AGL
Weather: no significant weather observed at this time

METAR text: OIAW 200750Z 30006KT 8000 NSC 13/04 Q1024 NOSIG
Conditions at: OIAW (AHWAZ , IR) observed 0750 UTC 20 January 2019
Temperature: 13.0°C (55°F)
Dewpoint: 4.0°C (39°F) [RH = 54%]
Pressure (altimeter): 30.24 inches Hg (1024.0 mb)
Winds: from the WNW (300 degrees) at 7 MPH (6 knots; 3.1 m/s)
Visibility: 5 miles ( 8 km)
Ceiling: at least 12,000 feet AGL
Clouds: sky clear below 12,000 feet AGL
Weather: no significant weather observed at this time

METAR text: OIAW 200730Z 31006KT 7000 NSC 12/04 Q1025
Conditions at: OIAW (AHWAZ , IR) observed 0730 UTC 20 January 2019
Temperature: 12.0°C (54°F)
Dewpoint: 4.0°C (39°F) [RH = 58%]
Pressure (altimeter): 30.27 inches Hg (1025.0 mb)
Winds: from the NW (310 degrees) at 7 MPH (6 knots; 3.1 m/s)
Visibility: 4 miles ( 7 km)
Ceiling: at least 12,000 feet AGL
Clouds: sky clear below 12,000 feet AGL
Weather: no significant weather observed at this time

METAR text: OIAW 200723Z 31006KT 7000 NSC 12/04 Q1025
Conditions at: OIAW (AHWAZ , IR) observed 0723 UTC 20 January 2019
Temperature: 12.0°C (54°F)
Dewpoint: 4.0°C (39°F) [RH = 58%]
Pressure (altimeter): 30.27 inches Hg (1025.0 mb)
Winds: from the NW (310 degrees) at 7 MPH (6 knots; 3.1 m/s)
Visibility: 4 miles ( 7 km)
Ceiling: at least 12,000 feet AGL
Clouds: sky clear below 12,000 feet AGL
Weather: no significant weather observed at this time

METAR text: OIAW 200700Z 31004KT 7000 NSC 11/03 Q1025 NOSIG
Conditions at: OIAW (AHWAZ , IR) observed 0700 UTC 20 January 2019
Temperature: 11.0°C (52°F)
Dewpoint: 3.0°C (37°F) [RH = 58%]
Pressure (altimeter): 30.27 inches Hg (1025.0 mb)
Winds: from the NW (310 degrees) at 5 MPH (4 knots; 2.1 m/s)
Visibility: 4 miles ( 7 km)
Ceiling: at least 12,000 feet AGL
Clouds: sky clear below 12,000 feet AGL
Weather: no significant weather observed at this time

METAR text: OIAW 200653Z 31004KT 7000 NSC 11/03 Q1025 NOSIG
Conditions at: OIAW (AHWAZ , IR) observed 0653 UTC 20 January 2019
Temperature: 11.0°C (52°F)
Dewpoint: 3.0°C (37°F) [RH = 58%]
Pressure (altimeter): 30.27 inches Hg (1025.0 mb)
Winds: from the NW (310 degrees) at 5 MPH (4 knots; 2.1 m/s)
Visibility: 4 miles ( 7 km)
Ceiling: at least 12,000 feet AGL
Clouds: sky clear below 12,000 feet AGL
Weather: no significant weather observed at this time

METAR text: OIAW 200630Z 30004KT 7000 NSC 10/03 Q1024
Conditions at: OIAW (AHWAZ , IR) observed 0630 UTC 20 January 2019
Temperature: 10.0°C (50°F)
Dewpoint: 3.0°C (37°F) [RH = 62%]
Pressure (altimeter): 30.24 inches Hg (1024.0 mb)
Winds: from the WNW (300 degrees) at 5 MPH (4 knots; 2.1 m/s)
Visibility: 4 miles ( 7 km)
Ceiling: at least 12,000 feet AGL
Clouds: sky clear below 12,000 feet AGL
Weather: no significant weather observed at this time

METAR text: OIAW 200624Z 30004KT 7000 NSC 10/03 Q1024
Conditions at: OIAW (AHWAZ , IR) observed 0624 UTC 20 January 2019
Temperature: 10.0°C (50°F)
Dewpoint: 3.0°C (37°F) [RH = 62%]
Pressure (altimeter): 30.24 inches Hg (1024.0 mb)
Winds: from the WNW (300 degrees) at 5 MPH (4 knots; 2.1 m/s)
Visibility: 4 miles ( 7 km)
Ceiling: at least 12,000 feet AGL
Clouds: sky clear below 12,000 feet AGL
Weather: no significant weather observed at this time

METAR text: OIAW 200600Z 31004KT 7000 NSC 09/04 Q1024 NOSIG
Conditions at: OIAW (AHWAZ , IR) observed 0600 UTC 20 January 2019
Temperature: 9.0°C (48°F)
Dewpoint: 4.0°C (39°F) [RH = 71%]
Pressure (altimeter): 30.24 inches Hg (1024.0 mb)
Winds: from the NW (310 degrees) at 5 MPH (4 knots; 2.1 m/s)
Visibility: 4 miles ( 7 km)
Ceiling: at least 12,000 feet AGL
Clouds: sky clear below 12,000 feet AGL
Weather: no significant weather observed at this time

METAR text: OIAW 200550Z 31004KT 7000 NSC 09/04 Q1024 NOSIG
Conditions at: OIAW (AHWAZ , IR) observed 0550 UTC 20 January 2019
Temperature: 9.0°C (48°F)
Dewpoint: 4.0°C (39°F) [RH = 71%]
Pressure (altimeter): 30.24 inches Hg (1024.0 mb)
Winds: from the NW (310 degrees) at 5 MPH (4 knots; 2.1 m/s)
Visibility: 4 miles ( 7 km)
Ceiling: at least 12,000 feet AGL
Clouds: sky clear below 12,000 feet AGL
Weather: no significant weather observed at this time

METAR text: OIAW 200530Z 32004KT 7000 NSC 09/04 Q1024
Conditions at: OIAW (AHWAZ , IR) observed 0530 UTC 20 January 2019
Temperature: 9.0°C (48°F)
Dewpoint: 4.0°C (39°F) [RH = 71%]
Pressure (altimeter): 30.24 inches Hg (1024.0 mb)
Winds: from the NW (320 degrees) at 5 MPH (4 knots; 2.1 m/s)
Visibility: 4 miles ( 7 km)
Ceiling: at least 12,000 feet AGL
Clouds: sky clear below 12,000 feet AGL
Weather: no significant weather observed at this time

METAR text: OIAW 200524Z 32004KT 7000 NSC 09/04 Q1024
Conditions at: OIAW (AHWAZ , IR) observed 0524 UTC 20 January 2019
Temperature: 9.0°C (48°F)
Dewpoint: 4.0°C (39°F) [RH = 71%]
Pressure (altimeter): 30.24 inches Hg (1024.0 mb)
Winds: from the NW (320 degrees) at 5 MPH (4 knots; 2.1 m/s)
Visibility: 4 miles ( 7 km)
Ceiling: at least 12,000 feet AGL
Clouds: sky clear below 12,000 feet AGL
Weather: no significant weather observed at this time

METAR text: OIAW 200500Z 31002KT 7000 NSC 08/04 Q1024 NOSIG
Conditions at: OIAW (AHWAZ , IR) observed 0500 UTC 20 January 2019
Temperature: 8.0°C (46°F)
Dewpoint: 4.0°C (39°F) [RH = 76%]
Pressure (altimeter): 30.24 inches Hg (1024.0 mb)
Winds: from the NW (310 degrees) at 2 MPH (2 knots; 1.0 m/s)
Visibility: 4 miles ( 7 km)
Ceiling: at least 12,000 feet AGL
Clouds: sky clear below 12,000 feet AGL
Weather: no significant weather observed at this time

METAR text: OIAW 200454Z 31002KT 7000 NSC 08/04 Q1024 NOSIG
Conditions at: OIAW (AHWAZ , IR) observed 0454 UTC 20 January 2019
Temperature: 8.0°C (46°F)
Dewpoint: 4.0°C (39°F) [RH = 76%]
Pressure (altimeter): 30.24 inches Hg (1024.0 mb)
Winds: from the NW (310 degrees) at 2 MPH (2 knots; 1.0 m/s)
Visibility: 4 miles ( 7 km)
Ceiling: at least 12,000 feet AGL
Clouds: sky clear below 12,000 feet AGL
Weather: no significant weather observed at this time

METAR text: OIAW 200430Z 32002KT 7000 NSC 06/04 Q1024
Conditions at: OIAW (AHWAZ , IR) observed 0430 UTC 20 January 2019
Temperature: 6.0°C (43°F)
Dewpoint: 4.0°C (39°F) [RH = 87%]
Pressure (altimeter): 30.24 inches Hg (1024.0 mb)
Winds: from the NW (320 degrees) at 2 MPH (2 knots; 1.0 m/s)
Visibility: 4 miles ( 7 km)
Ceiling: at least 12,000 feet AGL
Clouds: sky clear below 12,000 feet AGL
Weather: no significant weather observed at this time

METAR text: OIAW 200425Z 32002KT 7000 NSC 06/04 Q1024
Conditions at: OIAW (AHWAZ , IR) observed 0425 UTC 20 January 2019
Temperature: 6.0°C (43°F)
Dewpoint: 4.0°C (39°F) [RH = 87%]
Pressure (altimeter): 30.24 inches Hg (1024.0 mb)
Winds: from the NW (320 degrees) at 2 MPH (2 knots; 1.0 m/s)
Visibility: 4 miles ( 7 km)
Ceiling: at least 12,000 feet AGL
Clouds: sky clear below 12,000 feet AGL
Weather: no significant weather observed at this time

METAR text: OIAW 200400Z 32004KT 8000 NSC 06/04 Q1023
Conditions at: OIAW (AHWAZ , IR) observed 0400 UTC 20 January 2019
Temperature: 6.0°C (43°F)
Dewpoint: 4.0°C (39°F) [RH = 87%]
Pressure (altimeter): 30.21 inches Hg (1023.0 mb)
Winds: from the NW (320 degrees) at 5 MPH (4 knots; 2.1 m/s)
Visibility: 5 miles ( 8 km)
Ceiling: at least 12,000 feet AGL
Clouds: sky clear below 12,000 feet AGL
Weather: no significant weather observed at this time

METAR text: OIAW 200354Z 32004KT 8000 NSC 06/04 Q1023
Conditions at: OIAW (AHWAZ , IR) observed 0354 UTC 20 January 2019
Temperature: 6.0°C (43°F)
Dewpoint: 4.0°C (39°F) [RH = 87%]
Pressure (altimeter): 30.21 inches Hg (1023.0 mb)
Winds: from the NW (320 degrees) at 5 MPH (4 knots; 2.1 m/s)
Visibility: 5 miles ( 8 km)
Ceiling: at least 12,000 feet AGL
Clouds: sky clear below 12,000 feet AGL
Weather: no significant weather observed at this time

METAR text: OIAW 200330Z 32004KT CAVOK 06/04 Q1023
Conditions at: OIAW (AHWAZ , IR) observed 0330 UTC 20 January 2019
Temperature: 6.0°C (43°F)
Dewpoint: 4.0°C (39°F) [RH = 87%]
Pressure (altimeter): 30.21 inches Hg (1023.0 mb)
Winds: from the NW (320 degrees) at 5 MPH (4 knots; 2.1 m/s)
Visibility: 6 or more miles (10+ km)
Ceiling: ceiling and visibility are OK
Clouds: unknown
Weather: no significant weather observed at this time

METAR text: OIAW 200320Z 32004KT CAVOK 06/04 Q1023
Conditions at: OIAW (AHWAZ , IR) observed 0320 UTC 20 January 2019
Temperature: 6.0°C (43°F)
Dewpoint: 4.0°C (39°F) [RH = 87%]
Pressure (altimeter): 30.21 inches Hg (1023.0 mb)
Winds: from the NW (320 degrees) at 5 MPH (4 knots; 2.1 m/s)
Visibility: 6 or more miles (10+ km)
Ceiling: ceiling and visibility are OK
Clouds: unknown
Weather: no significant weather observed at this time

METAR text: OIAW 200300Z 32004KT CAVOK 06/04 Q1023
Conditions at: OIAW (AHWAZ , IR) observed 0300 UTC 20 January 2019
Temperature: 6.0°C (43°F)
Dewpoint: 4.0°C (39°F) [RH = 87%]
Pressure (altimeter): 30.21 inches Hg (1023.0 mb)
Winds: from the NW (320 degrees) at 5 MPH (4 knots; 2.1 m/s)
Visibility: 6 or more miles (10+ km)
Ceiling: ceiling and visibility are OK
Clouds: unknown
Weather: no significant weather observed at this time

METAR text: OIAW 200256Z 32004KT CAVOK 06/04 Q1023
Conditions at: OIAW (AHWAZ , IR) observed 0256 UTC 20 January 2019
Temperature: 6.0°C (43°F)
Dewpoint: 4.0°C (39°F) [RH = 87%]
Pressure (altimeter): 30.21 inches Hg (1023.0 mb)
Winds: from the NW (320 degrees) at 5 MPH (4 knots; 2.1 m/s)
Visibility: 6 or more miles (10+ km)
Ceiling: ceiling and visibility are OK
Clouds: unknown
Weather: no significant weather observed at this time

METAR text: OIAW 200200Z 31004KT CAVOK 06/03 Q1023
Conditions at: OIAW (AHWAZ , IR) observed 0200 UTC 20 January 2019
Temperature: 6.0°C (43°F)
Dewpoint: 3.0°C (37°F) [RH = 81%]
Pressure (altimeter): 30.21 inches Hg (1023.0 mb)
Winds: from the NW (310 degrees) at 5 MPH (4 knots; 2.1 m/s)
Visibility: 6 or more miles (10+ km)
Ceiling: ceiling and visibility are OK
Clouds: unknown
Weather: no significant weather observed at this time

METAR text: OIAW 200152Z 31004KT CAVOK 06/03 Q1023
Conditions at: OIAW (AHWAZ , IR) observed 0152 UTC 20 January 2019
Temperature: 6.0°C (43°F)
Dewpoint: 3.0°C (37°F) [RH = 81%]
Pressure (altimeter): 30.21 inches Hg (1023.0 mb)
Winds: from the NW (310 degrees) at 5 MPH (4 knots; 2.1 m/s)
Visibility: 6 or more miles (10+ km)
Ceiling: ceiling and visibility are OK
Clouds: unknown
Weather: no significant weather observed at this time

METAR text: OIAW 200100Z 30004KT CAVOK 06/03 Q1023
Conditions at: OIAW (AHWAZ , IR) observed 0100 UTC 20 January 2019
Temperature: 6.0°C (43°F)
Dewpoint: 3.0°C (37°F) [RH = 81%]
Pressure (altimeter): 30.21 inches Hg (1023.0 mb)
Winds: from the WNW (300 degrees) at 5 MPH (4 knots; 2.1 m/s)
Visibility: 6 or more miles (10+ km)
Ceiling: ceiling and visibility are OK
Clouds: unknown
Weather: no significant weather observed at this time

METAR text: OIAW 200052Z 30004KT CAVOK 06/03 Q1023
Conditions at: OIAW (AHWAZ , IR) observed 0052 UTC 20 January 2019
Temperature: 6.0°C (43°F)
Dewpoint: 3.0°C (37°F) [RH = 81%]
Pressure (altimeter): 30.21 inches Hg (1023.0 mb)
Winds: from the WNW (300 degrees) at 5 MPH (4 knots; 2.1 m/s)
Visibility: 6 or more miles (10+ km)
Ceiling: ceiling and visibility are OK
Clouds: unknown
Weather: no significant weather observed at this time

METAR text: OIAW 200000Z 31002KT CAVOK 07/03 Q1023
Conditions at: OIAW (AHWAZ , IR) observed 0000 UTC 20 January 2019
Temperature: 7.0°C (45°F)
Dewpoint: 3.0°C (37°F) [RH = 76%]
Pressure (altimeter): 30.21 inches Hg (1023.0 mb)
Winds: from the NW (310 degrees) at 2 MPH (2 knots; 1.0 m/s)
Visibility: 6 or more miles (10+ km)
Ceiling: ceiling and visibility are OK
Clouds: unknown
Weather: no significant weather observed at this time

METAR text: OIAW 192350Z 31002KT CAVOK 07/03 Q1023
Conditions at: OIAW (AHWAZ , IR) observed 2350 UTC 19 January 2019
Temperature: 7.0°C (45°F)
Dewpoint: 3.0°C (37°F) [RH = 76%]
Pressure (altimeter): 30.21 inches Hg (1023.0 mb)
Winds: from the NW (310 degrees) at 2 MPH (2 knots; 1.0 m/s)
Visibility: 6 or more miles (10+ km)
Ceiling: ceiling and visibility are OK
Clouds: unknown
Weather: no significant weather observed at this time

METAR text: OIAW 192300Z 31004KT CAVOK 07/03 Q1023
Conditions at: OIAW (AHWAZ , IR) observed 2300 UTC 19 January 2019
Temperature: 7.0°C (45°F)
Dewpoint: 3.0°C (37°F) [RH = 76%]
Pressure (altimeter): 30.21 inches Hg (1023.0 mb)
Winds: from the NW (310 degrees) at 5 MPH (4 knots; 2.1 m/s)
Visibility: 6 or more miles (10+ km)
Ceiling: ceiling and visibility are OK
Clouds: unknown
Weather: no significant weather observed at this time

METAR text: OIAW 192252Z 31004KT CAVOK 07/03 Q1023
Conditions at: OIAW (AHWAZ , IR) observed 2252 UTC 19 January 2019
Temperature: 7.0°C (45°F)
Dewpoint: 3.0°C (37°F) [RH = 76%]
Pressure (altimeter): 30.21 inches Hg (1023.0 mb)
Winds: from the NW (310 degrees) at 5 MPH (4 knots; 2.1 m/s)
Visibility: 6 or more miles (10+ km)
Ceiling: ceiling and visibility are OK
Clouds: unknown
Weather: no significant weather observed at this time

METAR text: OIAW 192200Z 33004KT CAVOK 07/03 Q1022
Conditions at: OIAW (AHWAZ , IR) observed 2200 UTC 19 January 2019
Temperature: 7.0°C (45°F)
Dewpoint: 3.0°C (37°F) [RH = 76%]
Pressure (altimeter): 30.18 inches Hg (1022.0 mb)
Winds: from the NNW (330 degrees) at 5 MPH (4 knots; 2.1 m/s)
Visibility: 6 or more miles (10+ km)
Ceiling: ceiling and visibility are OK
Clouds: unknown
Weather: no significant weather observed at this time

METAR text: OIAW 192153Z 33004KT CAVOK 07/03 Q1022
Conditions at: OIAW (AHWAZ , IR) observed 2153 UTC 19 January 2019
Temperature: 7.0°C (45°F)
Dewpoint: 3.0°C (37°F) [RH = 76%]
Pressure (altimeter): 30.18 inches Hg (1022.0 mb)
Winds: from the NNW (330 degrees) at 5 MPH (4 knots; 2.1 m/s)
Visibility: 6 or more miles (10+ km)
Ceiling: ceiling and visibility are OK
Clouds: unknown
Weather: no significant weather observed at this time

METAR text: OIAW 192100Z 32006KT CAVOK 08/03 Q1022
Conditions at: OIAW (AHWAZ , IR) observed 2100 UTC 19 January 2019
Temperature: 8.0°C (46°F)
Dewpoint: 3.0°C (37°F) [RH = 71%]
Pressure (altimeter): 30.18 inches Hg (1022.0 mb)
Winds: from the NW (320 degrees) at 7 MPH (6 knots; 3.1 m/s)
Visibility: 6 or more miles (10+ km)
Ceiling: ceiling and visibility are OK
Clouds: unknown
Weather: no significant weather observed at this time

METAR text: OIAW 192051Z 32006KT CAVOK 08/03 Q1022
Conditions at: OIAW (AHWAZ , IR) observed 2051 UTC 19 January 2019
Temperature: 8.0°C (46°F)
Dewpoint: 3.0°C (37°F) [RH = 71%]
Pressure (altimeter): 30.18 inches Hg (1022.0 mb)
Winds: from the NW (320 degrees) at 7 MPH (6 knots; 3.1 m/s)
Visibility: 6 or more miles (10+ km)
Ceiling: ceiling and visibility are OK
Clouds: unknown
Weather: no significant weather observed at this time

METAR text: OIAW 192030Z 32006KT CAVOK 08/03 Q1023
Conditions at: OIAW (AHWAZ , IR) observed 2030 UTC 19 January 2019
Temperature: 8.0°C (46°F)
Dewpoint: 3.0°C (37°F) [RH = 71%]
Pressure (altimeter): 30.21 inches Hg (1023.0 mb)
Winds: from the NW (320 degrees) at 7 MPH (6 knots; 3.1 m/s)
Visibility: 6 or more miles (10+ km)
Ceiling: ceiling and visibility are OK
Clouds: unknown
Weather: no significant weather observed at this time

METAR text: OIAW 192021Z 32006KT CAVOK 08/03 Q1023
Conditions at: OIAW (AHWAZ , IR) observed 2021 UTC 19 January 2019
Temperature: 8.0°C (46°F)
Dewpoint: 3.0°C (37°F) [RH = 71%]
Pressure (altimeter): 30.21 inches Hg (1023.0 mb)
Winds: from the NW (320 degrees) at 7 MPH (6 knots; 3.1 m/s)
Visibility: 6 or more miles (10+ km)
Ceiling: ceiling and visibility are OK
Clouds: unknown
Weather: no significant weather observed at this time

METAR text: OIAW 192000Z 32006KT CAVOK 08/03 Q1022
Conditions at: OIAW (AHWAZ , IR) observed 2000 UTC 19 January 2019
Temperature: 8.0°C (46°F)
Dewpoint: 3.0°C (37°F) [RH = 71%]
Pressure (altimeter): 30.18 inches Hg (1022.0 mb)
Winds: from the NW (320 degrees) at 7 MPH (6 knots; 3.1 m/s)
Visibility: 6 or more miles (10+ km)
Ceiling: ceiling and visibility are OK
Clouds: unknown
Weather: no significant weather observed at this time

METAR text: OIAW 191954Z 32006KT CAVOK 08/03 Q1022
Conditions at: OIAW (AHWAZ , IR) observed 1954 UTC 19 January 2019
Temperature: 8.0°C (46°F)
Dewpoint: 3.0°C (37°F) [RH = 71%]
Pressure (altimeter): 30.18 inches Hg (1022.0 mb)
Winds: from the NW (320 degrees) at 7 MPH (6 knots; 3.1 m/s)
Visibility: 6 or more miles (10+ km)
Ceiling: ceiling and visibility are OK
Clouds: unknown
Weather: no significant weather observed at this time

METAR text: OIAW 191922Z 32006KT CAVOK 08/03 Q1022
Conditions at: OIAW (AHWAZ , IR) observed 1922 UTC 19 January 2019
Temperature: 8.0°C (46°F)
Dewpoint: 3.0°C (37°F) [RH = 71%]
Pressure (altimeter): 30.18 inches Hg (1022.0 mb)
Winds: from the NW (320 degrees) at 7 MPH (6 knots; 3.1 m/s)
Visibility: 6 or more miles (10+ km)
Ceiling: ceiling and visibility are OK
Clouds: unknown
Weather: no significant weather observed at this time

METAR text: OIAW 191900Z 32006KT CAVOK 09/03 Q1022
Conditions at: OIAW (AHWAZ , IR) observed 1900 UTC 19 January 2019
Temperature: 9.0°C (48°F)
Dewpoint: 3.0°C (37°F) [RH = 66%]
Pressure (altimeter): 30.18 inches Hg (1022.0 mb)
Winds: from the NW (320 degrees) at 7 MPH (6 knots; 3.1 m/s)
Visibility: 6 or more miles (10+ km)
Ceiling: ceiling and visibility are OK
Clouds: unknown
Weather: no significant weather observed at this time

METAR text: OIAW 191852Z 32006KT CAVOK 09/03 Q1022
Conditions at: OIAW (AHWAZ , IR) observed 1852 UTC 19 January 2019
Temperature: 9.0°C (48°F)
Dewpoint: 3.0°C (37°F) [RH = 66%]
Pressure (altimeter): 30.18 inches Hg (1022.0 mb)
Winds: from the NW (320 degrees) at 7 MPH (6 knots; 3.1 m/s)
Visibility: 6 or more miles (10+ km)
Ceiling: ceiling and visibility are OK
Clouds: unknown
Weather: no significant weather observed at this time

METAR text: OIAW 191830Z 32006KT CAVOK 09/03 Q1022
Conditions at: OIAW (AHWAZ , IR) observed 1830 UTC 19 January 2019
Temperature: 9.0°C (48°F)
Dewpoint: 3.0°C (37°F) [RH = 66%]
Pressure (altimeter): 30.18 inches Hg (1022.0 mb)
Winds: from the NW (320 degrees) at 7 MPH (6 knots; 3.1 m/s)
Visibility: 6 or more miles (10+ km)
Ceiling: ceiling and visibility are OK
Clouds: unknown
Weather: no significant weather observed at this time

METAR text: OIAW 191823Z 32006KT CAVOK 09/03 Q1022
Conditions at: OIAW (AHWAZ , IR) observed 1823 UTC 19 January 2019
Temperature: 9.0°C (48°F)
Dewpoint: 3.0°C (37°F) [RH = 66%]
Pressure (altimeter): 30.18 inches Hg (1022.0 mb)
Winds: from the NW (320 degrees) at 7 MPH (6 knots; 3.1 m/s)
Visibility: 6 or more miles (10+ km)
Ceiling: ceiling and visibility are OK
Clouds: unknown
Weather: no significant weather observed at this time

METAR text: OIAW 191800Z 29006KT CAVOK 09/03 Q1022
Conditions at: OIAW (AHWAZ , IR) observed 1800 UTC 19 January 2019
Temperature: 9.0°C (48°F)
Dewpoint: 3.0°C (37°F) [RH = 66%]
Pressure (altimeter): 30.18 inches Hg (1022.0 mb)
Winds: from the WNW (290 degrees) at 7 MPH (6 knots; 3.1 m/s)
Visibility: 6 or more miles (10+ km)
Ceiling: ceiling and visibility are OK
Clouds: unknown
Weather: no significant weather observed at this time

METAR text: OIAW 191750Z 29006KT CAVOK 09/03 Q1022
Conditions at: OIAW (AHWAZ , IR) observed 1750 UTC 19 January 2019
Temperature: 9.0°C (48°F)
Dewpoint: 3.0°C (37°F) [RH = 66%]
Pressure (altimeter): 30.18 inches Hg (1022.0 mb)
Winds: from the WNW (290 degrees) at 7 MPH (6 knots; 3.1 m/s)
Visibility: 6 or more miles (10+ km)
Ceiling: ceiling and visibility are OK
Clouds: unknown
Weather: no significant weather observed at this time

Forecast for: OIAW (AHWAZ , IR)
Text: TAF OIAW 202310Z 2100/2206 30008KT 7000 NSC
Forecast period: 0000 to 0100 UTC 21 January 2019
Forecast type: FROM: standard forecast or significant change
Winds: from the WNW (300 degrees) at 9 MPH (8 knots; 4.1 m/s)
Visibility: 4 miles (7 km)
Ceiling: unknown
Clouds: missing
Weather: no significant weather forecast for this period
Text: BECMG 2101/2102 3000 BR SCT030 BKN080
Forecast period: 0100 to 0600 UTC 21 January 2019
Forecast type: BECOMING: Conditions expected to become as follows by 0200 UTC 21 January 2019
Winds: from the WNW (300 degrees) at 9 MPH (8 knots; 4.1 m/s)
Visibility: 1.86 miles (2.99 km)
Ceiling: 8000 feet AGL
Clouds: scattered clouds at 3000 feet AGL
broken clouds at 8000 feet AGL
Weather: BR  (mist)
Text: BECMG 2106/2108 7000
Forecast period: 0600 UTC 21 January 2019 to 0600 UTC 22 January 2019
Forecast type: BECOMING: Conditions expected to become as follows by 0800 UTC 21 January 2019
Winds: from the WNW (300 degrees) at 9 MPH (8 knots; 4.1 m/s)
Visibility: 4 miles (7 km)
Ceiling: 8000 feet AGL
Clouds: scattered clouds at 3000 feet AGL
broken clouds at 8000 feet AGL
Weather: BR  (mist)
Text: TEMPO 2109/2118 FEW035CB SCT040 OVC100
Forecast period: 0900 to 1800 UTC 21 January 2019
Forecast type: TEMPORARY: The following changes expected for less than half the time period
Visibility: missing
Ceiling: 10000 feet AGL
Clouds: few clouds at 3500 feet AGL
scattered clouds at 4000 feet AGL
overcast cloud deck at 10000 feet AGL
Weather: no significant weather forecast for this period